Погода в Прилогино

Россия / Курганская область     55°28′33″N   66°23′14″E
темп.,
°C
ветер,
м/с
пор.,
м/с
влажн.,
%
обл.,
%
осадки,
мм/ч
давл.,
гПа
погр.,
м
29 мая, вс
вс2923:00+11ююз49925 0.3 1012244
02:00+10юз410905 0.0 1013211
05:00+10юз3989100 0.0 1013206
08:00+15юз61267100 0.0 1012615
11:00+16юз91567100 0.0 1011866
14:00+20зюз10156397 0.3 10121786
17:00+19з6125892 0.6 10121042
20:00+17з71456100 0.0 1014693
30 мая, пн
пн3023:00+13зюз5127075 0.0 1016319
02:00+11з5137643 0.0 1016312
05:00+10з4118498 0.0 1017277
08:00+15з596489 0.0 1017618
11:00+19зюз575282 0.0 10161365
14:00+17з1364100 0.0 1015286
17:00+16юв247469 0.3 1013258
20:00+13с468793 0.1 1012367
31 мая, вт
вт3123:00+10зсз5119420 0.1 1014407
02:00+9з511964 0.0 1013311
05:00+9з5129511 0.0 1012397
08:00+12зсз7107527 0.0 1012740
11:00+16зсз81061100 0.3 10111566
14:00+16сз8106399 1.3 10111613
17:00+16ссз796598 2.7 10121583
20:00+12ссз247886 0.8 1014204
1 июня, ср
ср123:00+10зсз378999 0.8 1015139
02:00+9ссз498911 0.0 1015185
05:00+8сз410895 0.0 1016207
08:00+12сз586519 0.0 1016458
11:00+16сз794260 0.0 10161661
14:00+18сз810405 0.0 10152027
17:00+18сз7114415 0.0 10142489
20:00+15з4106191 0.1 1014308
2 июня, чт
чт223:00+12сз487941 0.4 1015133
02:00+10ссз410845 0.0 1016202
05:00+8с410802 0.0 1018241
08:00+11с59520 0.0 1020912
11:00+13ссз79444 0.0 10211497
14:00+14с79445 0.0 10211743
17:00+15с68455 0.0 10221821
20:00+12с22615 0.0 102332